| time (UTC) | temp F | wind direction | speed MPH | gust MPH | rain 1hr in | rain 24hr in | rain mn in | humidity % | barometer mb |
| 20260506135008 | 32 | 360 | 1.0 | 6.0 | 0.00 | 0.00 | 0.00 | 57 | 936.4 |
| 20260506134507 | 31 | 360 | 4.0 | 6.0 | 0.00 | 0.00 | 0.00 | 58 | 936.6 |
| 20260506134006 | 30 | 360 | 2.0 | 5.0 | 0.00 | 0.00 | 0.00 | 59 | 936.5 |
| 20260506133604 | 30 | 360 | 3.0 | 5.0 | 0.00 | 0.00 | 0.00 | 60 | 936.5 |
| 20260506133003 | 29 | 360 | 4.0 | 5.0 | 0.00 | 0.00 | 0.00 | 62 | 936.6 |
| 20260506132502 | 28 | 360 | 2.0 | 5.0 | 0.00 | 0.00 | 0.00 | 63 | 936.5 |
| 20260506132001 | 27 | 360 | 2.0 | 5.0 | 0.00 | 0.00 | 0.00 | 64 | 936.5 |
| 20260506131616 | 27 | 360 | 1.0 | 4.0 | 0.00 | 0.00 | 0.00 | 66 | 936.6 |
| 20260506131059 | 26 | 360 | 1.0 | 4.0 | 0.00 | 0.00 | 0.00 | 68 | 936.5 |
| 20260506130557 | 26 | 360 | 0.0 | 2.0 | 0.00 | 0.00 | 0.00 | 70 | 936.5 |
| 20260506130058 | 25 | 360 | 0.0 | 0.0 | 0.00 | 0.00 | 0.00 | 72 | 936.5 |
| 20260506125556 | 24 | 360 | 0.0 | 2.0 | 0.00 | 0.00 | 0.00 | 73 | 936.5 |
| 20260506125056 | 23 | 360 | 1.0 | 2.0 | 0.00 | 0.00 | 0.00 | 74 | 936.5 |
| 20260506124555 | 21 | 360 | 0.0 | 0.0 | 0.00 | 0.00 | 0.00 | 75 | 936.4 |
| 20260506124054 | 20 | 360 | 0.0 | 0.0 | 0.00 | 0.00 | 0.00 | 75 | 936.4 |
| 20260506123554 | 19 | 360 | 0.0 | 0.0 | 0.00 | 0.00 | 0.00 | 76 | 936.3 |
| 20260506122554 | 18 | 360 | 0.0 | 1.0 | 0.00 | 0.00 | 0.00 | 75 | 936.3 |
| 20260506122053 | 17 | 360 | 0.0 | 1.0 | 0.00 | 0.00 | 0.00 | 75 | 936.2 |
| 20260506121557 | 16 | 360 | 0.0 | 2.0 | 0.00 | 0.00 | 0.00 | 74 | 936.3 |
| 20260506121053 | 16 | 360 | 0.0 | 4.0 | 0.00 | 0.00 | 0.00 | 74 | 936.2 |
| 20260506120552 | 16 | 360 | 1.0 | 3.0 | 0.00 | 0.00 | 0.00 | 74 | 936.2 |
| 20260506115553 | 15 | 360 | 0.0 | 2.0 | 0.00 | 0.00 | 0.00 | 73 | 936.1 |
| 20260506115049 | 16 | 360 | 1.0 | 3.0 | 0.00 | 0.00 | 0.00 | 72 | 936.0 |
| 20260506114549 | 16 | 360 | 1.0 | 3.0 | 0.00 | 0.00 | 0.00 | 71 | 936.0 |
| 20260506114053 | 17 | 360 | 1.0 | 4.0 | 0.00 | 0.00 | 0.00 | 71 | 935.9 |
| 20260506113549 | 17 | 360 | 3.0 | 4.0 | 0.00 | 0.00 | 0.00 | 72 | 935.9 |
| 20260506112553 | 17 | 360 | 2.0 | 3.0 | 0.00 | 0.00 | 0.00 | 72 | 935.8 |
| 20260506112050 | 17 | 360 | 1.0 | 3.0 | 0.00 | 0.00 | 0.00 | 71 | 935.9 |
| 20260506111551 | 17 | 360 | 1.0 | 4.0 | 0.00 | 0.00 | 0.00 | 71 | 935.8 |
| 20260506111050 | 18 | 360 | 2.0 | 5.0 | 0.00 | 0.00 | 0.00 | 72 | 935.9 |
| 20260506110550 | 18 | 360 | 3.0 | 5.0 | 0.00 | 0.00 | 0.00 | 74 | 935.9 |
| 20260506110059 | 17 | 360 | 3.0 | 5.0 | 0.00 | 0.00 | 0.00 | 75 | 935.9 |
| 20260506105549 | 16 | 360 | 4.0 | 5.0 | 0.00 | 0.00 | 0.00 | 75 | 935.9 |
| 20260506105047 | 16 | 360 | 2.0 | 4.0 | 0.00 | 0.00 | 0.00 | 74 | 935.9 |
| 20260506104600 | 16 | 360 | 2.0 | 4.0 | 0.00 | 0.00 | 0.00 | 73 | 935.9 |
| 20260506104045 | 16 | 360 | 2.0 | 2.0 | 0.00 | 0.00 | 0.00 | 73 | 935.9 |
| 20260506103544 | 17 | 360 | 2.0 | 3.0 | 0.00 | 0.00 | 0.00 | 71 | 935.9 |
| 20260506102546 | 18 | 360 | 2.0 | 3.0 | 0.00 | 0.00 | 0.00 | 73 | 936.0 |
| 20260506102045 | 19 | 360 | 2.0 | 4.0 | 0.00 | 0.00 | 0.00 | 74 | 936.0 |
| 20260506101543 | 18 | 360 | 2.0 | 3.0 | 0.00 | 0.00 | 0.00 | 75 | 935.9 |
| 20260506101041 | 18 | 360 | 2.0 | 3.0 | 0.00 | 0.00 | 0.00 | 74 | 935.9 |
| 20260506100543 | 18 | 360 | 2.0 | 4.0 | 0.00 | 0.00 | 0.00 | 75 | 935.9 |
| 20260506100051 | 18 | 360 | 2.0 | 4.0 | 0.00 | 0.00 | 0.00 | 74 | 935.9 |
| 20260506095540 | 17 | 360 | 2.0 | 3.0 | 0.00 | 0.00 | 0.00 | 72 | 936.0 |
| 20260506095041 | 18 | 360 | 2.0 | 4.0 | 0.00 | 0.00 | 0.00 | 71 | 936.0 |
| 20260506094542 | 19 | 360 | 2.0 | 3.0 | 0.00 | 0.00 | 0.00 | 69 | 935.9 |
| 20260506094040 | 20 | 360 | 1.0 | 4.0 | 0.00 | 0.00 | 0.00 | 70 | 935.9 |
| 20260506093540 | 20 | 360 | 2.0 | 4.0 | 0.00 | 0.00 | 0.00 | 68 | 935.9 |
| 20260506092541 | 20 | 360 | 3.0 | 5.0 | 0.00 | 0.00 | 0.00 | 65 | 935.8 |
| 20260506092041 | 20 | 360 | 4.0 | 5.0 | 0.00 | 0.00 | 0.00 | 67 | 935.9 |
| 20260506091540 | 19 | 360 | 3.0 | 5.0 | 0.00 | 0.00 | 0.00 | 69 | 935.8 |
| 20260506091040 | 18 | 360 | 3.0 | 5.0 | 0.00 | 0.00 | 0.00 | 71 | 935.8 |
| 20260506090538 | 18 | 360 | 3.0 | 4.0 | 0.00 | 0.00 | 0.00 | 71 | 935.9 |
| 20260506090040 | 18 | 360 | 2.0 | 4.0 | 0.00 | 0.00 | 0.00 | 71 | 935.9 |
| 20260506085536 | 17 | 360 | 2.0 | 4.0 | 0.00 | 0.00 | 0.00 | 70 | 935.8 |
| 20260506085035 | 18 | 360 | 1.0 | 3.0 | 0.00 | 0.00 | 0.00 | 70 | 935.9 |
| 20260506084609 | 18 | 360 | 0.0 | 0.0 | 0.00 | 0.00 | 0.00 | 69 | 935.9 |
| 20260506084034 | 18 | 360 | 0.0 | 1.0 | 0.00 | 0.00 | 0.00 | 68 | 935.9 |
| 20260506083533 | 19 | 360 | 0.0 | 4.0 | 0.00 | 0.00 | 0.00 | 66 | 935.9 |
| 20260506082532 | 19 | 360 | 1.0 | 3.0 | 0.00 | 0.00 | 0.00 | 65 | 935.9 |
| 20260506082031 | 20 | 360 | 1.0 | 3.0 | 0.00 | 0.00 | 0.00 | 66 | 935.8 |
| 20260506081539 | 20 | 360 | 2.0 | 3.0 | 0.00 | 0.00 | 0.00 | 67 | 935.9 |
| 20260506081034 | 19 | 360 | 2.0 | 3.0 | 0.00 | 0.00 | 0.00 | 68 | 935.8 |
| 20260506080530 | 19 | 360 | 2.0 | 4.0 | 0.00 | 0.00 | 0.00 | 67 | 935.9 |
| 20260506073525 | 21 | 360 | 1.0 | 3.0 | 0.00 | 0.00 | 0.00 | 67 | 935.9 |
| 20260506072525 | 21 | 360 | 0.0 | 1.0 | 0.00 | 0.00 | 0.00 | 65 | 936.0 |
| 20260506072023 | 22 | 360 | 0.0 | 1.0 | 0.00 | 0.00 | 0.00 | 64 | 936.0 |
| 20260506071521 | 23 | 360 | 0.0 | 4.0 | 0.00 | 0.00 | 0.00 | 63 | 935.9 |
| 20260506071021 | 23 | 360 | 0.0 | 4.0 | 0.00 | 0.00 | 0.00 | 62 | 935.9 |
| 20260506070521 | 23 | 360 | 2.0 | 4.0 | 0.00 | 0.00 | 0.00 | 62 | 935.8 |
| 20260506062017 | 25 | 360 | 4.0 | 5.0 | 0.00 | 0.00 | 0.00 | 60 | 935.8 |
| 20260506061514 | 25 | 360 | 3.0 | 3.0 | 0.00 | 0.00 | 0.00 | 60 | 935.8 |
| 20260506061013 | 25 | 360 | 2.0 | 4.0 | 0.00 | 0.00 | 0.00 | 60 | 935.8 |
| 20260506060515 | 25 | 360 | 0.0 | 1.0 | 0.00 | 0.00 | 0.00 | 61 | 935.7 |
| 20260506051003 | 27 | 360 | 4.0 | 6.0 | 0.00 | 0.00 | 0.00 | 59 | 935.6 |
| 20260506050502 | 28 | 360 | 4.0 | 5.0 | 0.00 | 0.00 | 0.00 | 58 | 935.5 |
| 20260506045100 | 29 | 360 | 4.0 | 5.0 | 0.00 | 0.00 | 0.00 | 57 | 935.5 |
| 20260506044602 | 29 | 360 | 4.0 | 5.0 | 0.00 | 0.00 | 0.00 | 58 | 935.5 |
| 20260506044059 | 29 | 360 | 3.0 | 5.0 | 0.00 | 0.00 | 0.00 | 58 | 935.5 |
| 20260506043557 | 29 | 360 | 3.0 | 5.0 | 0.00 | 0.00 | 0.00 | 58 | 935.5 |
| 20260506042558 | 30 | 360 | 3.0 | 5.0 | 0.00 | 0.00 | 0.00 | 56 | 935.5 |
| 20260506042100 | 30 | 360 | 1.0 | 4.0 | 0.00 | 0.00 | 0.00 | 56 | 935.5 |
| 20260506041607 | 30 | 360 | 2.0 | 6.0 | 0.00 | 0.00 | 0.00 | 56 | 935.6 |
| 20260506041056 | 30 | 360 | 3.0 | 6.0 | 0.00 | 0.00 | 0.00 | 56 | 935.5 |
| 20260506040555 | 30 | 360 | 5.0 | 6.0 | 0.00 | 0.00 | 0.00 | 55 | 935.5 |
| 20260506040054 | 31 | 360 | 4.0 | 6.0 | 0.00 | 0.00 | 0.00 | 56 | 935.5 |
| 20260506035554 | 31 | 360 | 4.0 | 6.0 | 0.00 | 0.00 | 0.00 | 55 | 935.4 |
| 20260506035052 | 31 | 360 | 4.0 | 6.0 | 0.00 | 0.00 | 0.00 | 55 | 935.4 |
| 20260506034554 | 32 | 360 | 3.0 | 6.0 | 0.00 | 0.00 | 0.00 | 54 | 935.4 |
| 20260506034053 | 32 | 360 | 4.0 | 6.0 | 0.00 | 0.00 | 0.00 | 54 | 935.4 |
| 20260506033551 | 32 | 360 | 2.0 | 4.0 | 0.00 | 0.00 | 0.00 | 54 | 935.3 |
| 20260506032552 | 32 | 360 | 2.0 | 3.0 | 0.00 | 0.00 | 0.00 | 55 | 935.4 |
| 20260506032051 | 31 | 360 | 2.0 | 5.0 | 0.00 | 0.00 | 0.00 | 54 | 935.3 |
| 20260506031554 | 32 | 360 | 2.0 | 6.0 | 0.00 | 0.00 | 0.00 | 53 | 935.2 |
| 20260506031050 | 31 | 360 | 5.0 | 6.0 | 0.00 | 0.00 | 0.00 | 54 | 935.2 |
| 20260506030550 | 31 | 360 | 3.0 | 5.0 | 0.00 | 0.00 | 0.00 | 53 | 935.1 |
| 20260506030049 | 32 | 360 | 1.0 | 7.0 | 0.00 | 0.00 | 0.00 | 52 | 935.1 |
| 20260506025547 | 33 | 360 | 2.0 | 8.0 | 0.00 | 0.00 | 0.00 | 51 | 935.2 |
| 20260506025049 | 33 | 360 | 5.0 | 8.0 | 0.00 | 0.00 | 0.00 | 50 | 935.1 |
| 20260506024545 | 34 | 360 | 6.0 | 8.0 | 0.00 | 0.00 | 0.00 | 50 | 935.0 |
| 20260506024044 | 34 | 360 | 6.0 | 7.0 | 0.00 | 0.00 | 0.00 | 50 | 934.9 |
| 20260506023545 | 35 | 360 | 5.0 | 8.0 | 0.00 | 0.00 | 0.00 | 49 | 934.9 |
| 20260506022543 | 35 | 360 | 5.0 | 7.0 | 0.00 | 0.00 | 0.00 | 49 | 934.8 |
| 20260506022042 | 36 | 360 | 5.0 | 8.0 | 0.00 | 0.00 | 0.00 | 47 | 934.7 |
| 20260506021606 | 37 | 360 | 6.0 | 8.0 | 0.00 | 0.00 | 0.00 | 46 | 934.7 |
| 20260506021049 | 38 | 360 | 5.0 | 8.0 | 0.00 | 0.00 | 0.00 | 45 | 934.7 |
| 20260506020542 | 39 | 360 | 6.0 | 9.0 | 0.00 | 0.00 | 0.00 | 45 | 934.7 |
| 20260506020041 | 40 | 360 | 6.0 | 10.0 | 0.00 | 0.00 | 0.00 | 43 | 934.7 |
| 20260506015541 | 40 | 360 | 7.0 | 12.0 | 0.00 | 0.00 | 0.00 | 42 | 934.6 |
| 20260506015044 | 41 | 360 | 10.0 | 12.0 | 0.00 | 0.00 | 0.00 | 41 | 934.6 |
| 20260506014542 | 41 | 360 | 8.0 | 13.0 | 0.00 | 0.00 | 0.00 | 41 | 934.5 |
| 20260506014045 | 42 | 360 | 9.0 | 16.0 | 0.00 | 0.00 | 0.00 | 40 | 934.5 |
| 20260506013544 | 42 | 360 | 11.0 | 16.0 | 0.00 | 0.00 | 0.00 | 40 | 934.6 |
| 20260506012541 | 43 | 360 | 12.0 | 16.0 | 0.00 | 0.00 | 0.00 | 39 | 934.5 |
| 20260506012041 | 43 | 360 | 10.0 | 16.0 | 0.00 | 0.00 | 0.00 | 39 | 934.5 |
| 20260506011543 | 43 | 360 | 13.0 | 18.0 | 0.00 | 0.00 | 0.00 | 38 | 934.5 |
| 20260506011041 | 44 | 360 | 11.0 | 19.0 | 0.00 | 0.00 | 0.00 | 38 | 934.5 |
| 20260506010541 | 44 | 360 | 12.0 | 19.0 | 0.00 | 0.00 | 0.00 | 38 | 934.4 |
| 20260506010040 | 44 | 360 | 12.0 | 15.0 | 0.00 | 0.00 | 0.00 | 38 | 934.5 |
| 20260506005543 | 44 | 360 | 12.0 | 16.0 | 0.00 | 0.00 | 0.00 | 38 | 934.4 |
| 20260506005141 | 44 | 360 | 11.0 | 19.0 | 0.00 | 0.00 | 0.00 | 38 | 934.4 |
| 20260506004540 | 44 | 360 | 14.0 | 19.0 | 0.00 | 0.00 | 0.00 | 38 | 934.4 |
| 20260506004040 | 44 | 360 | 13.0 | 20.0 | 0.00 | 0.00 | 0.00 | 38 | 934.4 |
| 20260506003539 | 44 | 360 | 12.0 | 22.0 | 0.00 | 0.00 | 0.00 | 38 | 934.5 |
| 20260506002538 | 45 | 360 | 11.0 | 20.0 | 0.00 | 0.00 | 0.00 | 38 | 934.4 |
| 20260506002039 | 45 | 360 | 13.0 | 21.0 | 0.00 | 0.00 | 0.00 | 37 | 934.3 |
| 20260506001541 | 45 | 360 | 12.0 | 19.0 | 0.00 | 0.00 | 0.00 | 38 | 934.3 |
| 20260506001038 | 45 | 360 | 14.0 | 22.0 | 0.00 | 0.00 | 0.00 | 38 | 934.3 |
| 20260506000539 | 45 | 360 | 15.0 | 25.0 | 0.00 | 0.00 | 0.00 | 38 | 934.3 |
| 20260506000040 | 45 | 360 | 15.0 | 25.0 | 0.00 | 0.00 | 0.00 | 37 | 934.3 |
| 20260505235539 | 45 | 360 | 13.0 | 25.0 | 0.00 | 0.00 | 0.00 | 37 | 934.2 |
| 20260505235038 | 45 | 360 | 19.0 | 25.0 | 0.00 | 0.00 | 0.00 | 37 | 934.3 |
| 20260505234538 | 44 | 360 | 13.0 | 21.0 | 0.00 | 0.00 | 0.00 | 38 | 934.3 |
| 20260505234040 | 44 | 360 | 13.0 | 23.0 | 0.00 | 0.00 | 0.00 | 38 | 934.3 |
| 20260505233537 | 44 | 360 | 15.0 | 23.0 | 0.00 | 0.00 | 0.00 | 38 | 934.3 |
| 20260505232538 | 43 | 360 | 14.0 | 22.0 | 0.00 | 0.00 | 0.00 | 39 | 934.3 |
| 20260505232041 | 44 | 360 | 15.0 | 23.0 | 0.00 | 0.00 | 0.00 | 38 | 934.2 |
| 20260505231549 | 44 | 360 | 15.0 | 23.0 | 0.00 | 0.00 | 0.00 | 37 | 934.1 |
| 20260505231037 | 44 | 360 | 12.0 | 25.0 | 0.00 | 0.00 | 0.00 | 37 | 934.1 |
| 20260505230537 | 44 | 360 | 18.0 | 25.0 | 0.00 | 0.00 | 0.00 | 37 | 934.1 |
| 20260505230039 | 45 | 360 | 12.0 | 26.0 | 0.00 | 0.00 | 0.00 | 37 | 934.0 |
| 20260505225537 | 46 | 360 | 16.0 | 26.0 | 0.00 | 0.00 | 0.00 | 36 | 934.1 |
| 20260505225037 | 47 | 360 | 13.0 | 25.0 | 0.00 | 0.00 | 0.00 | 36 | 933.9 |
| 20260505224535 | 46 | 360 | 13.0 | 22.0 | 0.00 | 0.00 | 0.00 | 38 | 933.9 |
| 20260505224035 | 44 | 360 | 15.0 | 22.0 | 0.00 | 0.00 | 0.00 | 38 | 934.1 |
| 20260505223534 | 43 | 360 | 12.0 | 22.0 | 0.00 | 0.00 | 0.00 | 39 | 934.0 |
| 20260505222635 | 43 | 360 | 12.0 | 22.0 | 0.00 | 0.00 | 0.00 | 39 | 934.0 |
| 20260505222033 | 43 | 360 | 16.0 | 24.0 | 0.00 | 0.00 | 0.00 | 39 | 934.1 |
| 20260505221534 | 44 | 360 | 17.0 | 24.0 | 0.00 | 0.00 | 0.00 | 39 | 934.2 |
| 20260505221033 | 44 | 360 | 15.0 | 23.0 | 0.00 | 0.00 | 0.00 | 40 | 934.1 |
| 20260505220534 | 44 | 360 | 16.0 | 23.0 | 0.00 | 0.00 | 0.00 | 39 | 934.1 |
| 20260505220033 | 44 | 360 | 14.0 | 21.0 | 0.00 | 0.00 | 0.00 | 39 | 934.1 |
| 20260505215532 | 44 | 360 | 14.0 | 20.0 | 0.00 | 0.00 | 0.00 | 39 | 934.2 |
| 20260505215032 | 44 | 360 | 13.0 | 21.0 | 0.00 | 0.00 | 0.00 | 40 | 934.2 |
| 20260505214548 | 43 | 360 | 16.0 | 22.0 | 0.00 | 0.00 | 0.00 | 39 | 934.2 |
| 20260505214033 | 44 | 360 | 13.0 | 22.0 | 0.00 | 0.00 | 0.00 | 39 | 934.2 |
| 20260505213531 | 43 | 360 | 15.0 | 23.0 | 0.00 | 0.00 | 0.00 | 40 | 934.2 |
| 20260505212534 | 44 | 360 | 14.0 | 25.0 | 0.00 | 0.00 | 0.00 | 40 | 934.2 |
| 20260505212033 | 43 | 360 | 14.0 | 22.0 | 0.00 | 0.00 | 0.00 | 40 | 934.2 |
| 20260505211633 | 44 | 360 | 17.0 | 24.0 | 0.00 | 0.00 | 0.00 | 40 | 934.3 |
| 20260505211033 | 43 | 360 | 17.0 | 24.0 | 0.00 | 0.00 | 0.00 | 39 | 934.3 |
| 20260505210532 | 44 | 360 | 12.0 | 24.0 | 0.00 | 0.00 | 0.00 | 40 | 934.3 |
| 20260505210032 | 43 | 360 | 14.0 | 23.0 | 0.00 | 0.00 | 0.00 | 39 | 934.3 |
| 20260505205532 | 44 | 360 | 17.0 | 27.0 | 0.00 | 0.00 | 0.00 | 39 | 934.4 |
| 20260505205031 | 44 | 360 | 17.0 | 27.0 | 0.00 | 0.00 | 0.00 | 39 | 934.4 |
| 20260505204530 | 44 | 360 | 17.0 | 23.0 | 0.00 | 0.00 | 0.00 | 39 | 934.4 |
| 20260505204032 | 43 | 360 | 18.0 | 24.0 | 0.00 | 0.00 | 0.00 | 40 | 934.5 |
| 20260505203531 | 43 | 360 | 16.0 | 24.0 | 0.00 | 0.00 | 0.00 | 39 | 934.4 |
| 20260505202529 | 43 | 360 | 18.0 | 25.0 | 0.00 | 0.00 | 0.00 | 39 | 934.6 |
| 20260505202030 | 44 | 360 | 17.0 | 23.0 | 0.00 | 0.00 | 0.00 | 39 | 934.5 |
| 20260505201533 | 43 | 360 | 12.0 | 24.0 | 0.00 | 0.00 | 0.00 | 40 | 934.5 |
| 20260505201029 | 43 | 360 | 16.0 | 24.0 | 0.00 | 0.00 | 0.00 | 40 | 934.5 |
| 20260505200529 | 43 | 360 | 14.0 | 24.0 | 0.00 | 0.00 | 0.00 | 40 | 934.5 |
| 20260505200027 | 42 | 360 | 15.0 | 23.0 | 0.00 | 0.00 | 0.00 | 41 | 934.6 |
| 20260505195528 | 43 | 360 | 12.0 | 25.0 | 0.00 | 0.00 | 0.00 | 40 | 934.6 |
| 20260505195027 | 43 | 360 | 18.0 | 25.0 | 0.00 | 0.00 | 0.00 | 41 | 934.5 |
| 20260505194527 | 43 | 360 | 16.0 | 24.0 | 0.00 | 0.00 | 0.00 | 40 | 934.6 |
| 20260505194029 | 43 | 360 | 13.0 | 24.0 | 0.00 | 0.00 | 0.00 | 40 | 934.5 |
| 20260505193525 | 43 | 360 | 14.0 | 21.0 | 0.00 | 0.00 | 0.00 | 40 | 934.6 |
| 20260505192524 | 42 | 360 | 16.0 | 25.0 | 0.00 | 0.00 | 0.00 | 40 | 934.6 |
| 20260505192026 | 42 | 360 | 19.0 | 25.0 | 0.00 | 0.00 | 0.00 | 40 | 934.6 |
| 20260505191524 | 42 | 360 | 15.0 | 22.0 | 0.00 | 0.00 | 0.00 | 42 | 934.6 |
| 20260505191023 | 42 | 360 | 15.0 | 26.0 | 0.00 | 0.00 | 0.00 | 40 | 934.7 |
| 20260505190523 | 42 | 360 | 19.0 | 26.0 | 0.00 | 0.00 | 0.00 | 41 | 934.6 |
| 20260505190025 | 42 | 360 | 12.0 | 21.0 | 0.00 | 0.00 | 0.00 | 42 | 934.4 |
| 20260505185523 | 42 | 360 | 14.0 | 25.0 | 0.00 | 0.00 | 0.00 | 40 | 934.5 |
| 20260505185022 | 41 | 360 | 18.0 | 25.0 | 0.00 | 0.00 | 0.00 | 40 | 934.4 |
| 20260505184526 | 42 | 360 | 16.0 | 22.0 | 0.00 | 0.00 | 0.00 | 40 | 934.4 |
| 20260505184026 | 41 | 360 | 12.0 | 24.0 | 0.00 | 0.00 | 0.00 | 41 | 934.4 |
| 20260505183522 | 41 | 360 | 15.0 | 24.0 | 0.00 | 0.00 | 0.00 | 41 | 934.6 |
| 20260505182523 | 41 | 360 | 15.0 | 35.0 | 0.00 | 0.00 | 0.00 | 41 | 934.4 |
| 20260505182023 | 41 | 360 | 22.0 | 35.0 | 0.00 | 0.00 | 0.00 | 40 | 934.4 |
| 20260505181523 | 42 | 360 | 11.0 | 24.0 | 0.00 | 0.00 | 0.00 | 41 | 934.3 |
| 20260505181023 | 41 | 360 | 15.0 | 26.0 | 0.00 | 0.00 | 0.00 | 40 | 934.5 |
| 20260505180522 | 42 | 360 | 14.0 | 27.0 | 0.00 | 0.00 | 0.00 | 40 | 934.5 |
| 20260505180022 | 42 | 360 | 18.0 | 27.0 | 0.00 | 0.00 | 0.00 | 38 | 934.5 |
| 20260505175522 | 41 | 360 | 12.0 | 27.0 | 0.00 | 0.00 | 0.00 | 40 | 934.4 |
| 20260505175022 | 42 | 360 | 14.0 | 31.0 | 0.00 | 0.00 | 0.00 | 41 | 934.4 |
| 20260505174528 | 41 | 360 | 22.0 | 31.0 | 0.00 | 0.00 | 0.00 | 40 | 934.4 |
| 20260505174022 | 42 | 360 | 15.0 | 26.0 | 0.00 | 0.00 | 0.00 | 40 | 934.3 |
| 20260505173521 | 42 | 360 | 14.0 | 24.0 | 0.00 | 0.00 | 0.00 | 40 | 934.3 |
| 20260505172522 | 41 | 360 | 19.0 | 24.0 | 0.00 | 0.00 | 0.00 | 40 | 934.4 |
| 20260505172020 | 41 | 360 | 16.0 | 24.0 | 0.00 | 0.00 | 0.00 | 40 | 934.6 |
| 20260505171519 | 41 | 360 | 15.0 | 26.0 | 0.00 | 0.00 | 0.00 | 42 | 934.4 |
| 20260505171019 | 40 | 360 | 11.0 | 26.0 | 0.00 | 0.00 | 0.00 | 43 | 934.5 |
| 20260505170519 | 40 | 360 | 19.0 | 25.0 | 0.00 | 0.00 | 0.00 | 43 | 934.5 |
| 20260505170020 | 40 | 360 | 16.0 | 25.0 | 0.00 | 0.00 | 0.00 | 43 | 934.6 |
| 20260505165518 | 40 | 360 | 17.0 | 26.0 | 0.00 | 0.00 | 0.00 | 44 | 934.5 |
| 20260505165018 | 40 | 360 | 14.0 | 26.0 | 0.00 | 0.00 | 0.00 | 42 | 934.5 |
| 20260505164517 | 40 | 360 | 15.0 | 26.0 | 0.00 | 0.00 | 0.00 | 44 | 934.5 |
| 20260505164016 | 40 | 360 | 15.0 | 26.0 | 0.00 | 0.00 | 0.00 | 44 | 934.5 |
| 20260505163514 | 39 | 360 | 17.0 | 24.0 | 0.00 | 0.00 | 0.00 | 44 | 934.5 |
| 20260505162514 | 38 | 360 | 19.0 | 25.0 | 0.00 | 0.00 | 0.00 | 46 | 934.6 |
| 20260505162013 | 39 | 360 | 17.0 | 25.0 | 0.00 | 0.00 | 0.00 | 47 | 934.6 |
| 20260505161513 | 39 | 360 | 18.0 | 25.0 | 0.00 | 0.00 | 0.00 | 47 | 934.5 |
| 20260505161012 | 38 | 360 | 15.0 | 25.0 | 0.00 | 0.00 | 0.00 | 49 | 934.6 |
| 20260505160511 | 37 | 360 | 14.0 | 22.0 | 0.00 | 0.00 | 0.00 | 50 | 934.5 |
| 20260505152509 | 37 | 360 | 14.0 | 23.0 | 0.00 | 0.00 | 0.00 | 52 | 934.4 |
| 20260505152009 | 37 | 360 | 11.0 | 21.0 | 0.00 | 0.00 | 0.00 | 54 | 934.5 |
| 20260505151509 | 37 | 360 | 14.0 | 22.0 | 0.00 | 0.00 | 0.00 | 53 | 934.5 |
| 20260505151009 | 37 | 360 | 15.0 | 23.0 | 0.00 | 0.00 | 0.00 | 52 | 934.5 |
| 20260505150507 | 37 | 360 | 14.0 | 20.0 | 0.00 | 0.00 | 0.00 | 52 | 934.5 |
| 20260505140559 | 37 | 360 | 14.0 | 20.0 | 0.00 | 0.00 | 0.00 | 59 | 934.0 |
| 20260505140110 | 36 | 360 | 12.0 | 20.0 | 0.00 | 0.00 | 0.00 | 59 | 934.0 |